Time,TemperatureF,DewpointF,PressureIn,WindDirection,WindDirectionDegrees,WindSpeedMPH,WindSpeedGustMPH,Humidity,HourlyPrecipIn,Conditions,Clouds,dailyrainin,SoftwareType,DateUTC
2013-06-18 04:24:00,68.9,68.3,29.12,SE,135,0.0,0.0,98,0.00,,OVC240,0.00,VWS V14.01,2013-06-18 09:24:00,
2013-06-18 04:25:00,68.9,68.3,29.12,South,180,1.1,1.1,98,0.00,,OVC240,0.00,VWS V14.01,2013-06-18 09:25:00,
2013-06-18 04:26:00,68.9,68.3,29.12,SW,225,0.0,1.1,98,0.00,,OVC240,0.00,VWS V14.01,2013-06-18 09:26:00,
2013-06-18 04:27:00,68.9,68.3,29.12,SW,225,0.0,1.1,98,0.00,,OVC240,0.00,VWS V14.01,2013-06-18 09:27:00,
2013-06-18 04:28:00,68.9,68.3,29.12,SW,225,0.0,1.1,98,0.00,,OVC240,0.00,VWS V14.01,2013-06-18 09:28:00,
2013-06-18 04:33:00,69.1,68.5,29.12,SW,225,0.0,1.1,98,0.00,,OVC240,0.00,VWS V14.01,2013-06-18 09:33:00,
2013-06-18 04:34:00,69.1,68.5,29.12,SW,225,0.0,0.0,98,0.00,,OVC240,0.00,VWS V14.01,2013-06-18 09:34:00,
2013-06-18 04:35:00,69.1,68.5,29.12,SW,225,0.0,0.0,98,0.00,,OVC240,0.00,VWS V14.01,2013-06-18 09:35:00,
2013-06-18 04:36:00,69.1,68.5,29.12,SW,225,0.0,0.0,98,0.00,,OVC240,0.00,VWS V14.01,2013-06-18 09:36:00,
2013-06-18 04:37:00,69.1,68.5,29.12,SW,225,0.0,0.0,98,0.00,,OVC240,0.00,VWS V14.01,2013-06-18 09:37:00,
2013-06-18 04:38:00,69.1,68.5,29.12,SW,225,0.0,0.0,98,0.00,,OVC240,0.00,VWS V14.01,2013-06-18 09:38:00,
2013-06-18 04:39:00,69.1,68.5,29.12,SW,225,0.0,0.0,98,0.00,,OVC240,0.00,VWS V14.01,2013-06-18 09:39:00,
2013-06-18 04:40:00,69.1,68.5,29.12,SW,225,0.0,0.0,98,0.00,,OVC240,0.00,VWS V14.01,2013-06-18 09:40:00,
2013-06-18 04:41:00,69.3,68.7,29.12,SW,225,0.0,0.0,98,0.00,,OVC240,0.00,VWS V14.01,2013-06-18 09:41:00,
2013-06-18 04:42:00,69.3,68.7,29.12,SW,225,0.0,0.0,98,0.00,,OVC240,0.00,VWS V14.01,2013-06-18 09:42:00,
2013-06-18 04:43:00,69.3,68.7,29.12,SW,225,0.0,0.0,98,0.00,,OVC240,0.00,VWS V14.01,2013-06-18 09:43:00,
2013-06-18 04:44:00,69.3,68.7,29.12,SW,225,0.0,0.0,98,0.00,,OVC240,0.00,VWS V14.01,2013-06-18 09:44:00,
2013-06-18 04:45:00,69.3,68.7,29.12,East,90,0.0,0.0,98,0.00,,OVC240,0.00,VWS V14.01,2013-06-18 09:45:00,
2013-06-18 04:46:00,69.3,68.7,29.12,SE,135,1.1,1.1,98,0.00,,OVC240,0.00,VWS V14.01,2013-06-18 09:46:00,
2013-06-18 04:47:00,69.3,68.7,29.12,SE,135,0.0,1.1,98,0.00,,OVC240,0.00,VWS V14.01,2013-06-18 09:47:00,
2013-06-18 04:48:00,69.3,68.7,29.12,SE,135,0.9,1.1,98,0.00,,OVC240,0.00,VWS V14.01,2013-06-18 09:48:00,
2013-06-18 04:49:00,69.3,68.7,29.12,SE,135,0.0,1.1,98,0.00,,OVC240,0.00,VWS V14.01,2013-06-18 09:49:00,
2013-06-18 04:50:00,69.3,68.7,29.12,SE,135,0.0,1.1,98,0.00,,OVC240,0.00,VWS V14.01,2013-06-18 09:50:00,
2013-06-18 04:51:00,69.3,68.7,29.12,SE,135,0.9,0.9,98,0.00,,OVC240,0.00,VWS V14.01,2013-06-18 09:51:00,
2013-06-18 04:52:00,69.3,68.7,29.14,SE,135,0.0,0.9,98,0.00,,OVC240,0.00,VWS V14.01,2013-06-18 09:52:00,
2013-06-18 04:53:00,69.3,68.7,29.14,SE,135,1.6,1.6,98,0.00,,OVC240,0.00,VWS V14.01,2013-06-18 09:53:00,
2013-06-18 05:00:00,69.3,68.7,29.14,SE,135,0.0,0.0,98,0.00,,OVC240,0.00,VWS V14.01,2013-06-18 10:00:00,
2013-06-18 05:08:00,69.4,68.8,29.14,West,270,0.0,0.0,98,0.00,,OVC240,0.00,VWS V14.01,2013-06-18 10:08:00,
2013-06-18 05:10:00,69.4,68.8,29.14,West,270,0.0,0.0,98,0.00,,OVC240,0.00,VWS V14.01,2013-06-18 10:10:00,
2013-06-18 05:12:00,69.4,68.8,29.14,West,270,0.0,0.0,98,0.00,,OVC240,0.00,VWS V14.01,2013-06-18 10:12:00,
2013-06-18 05:13:00,69.4,68.8,29.14,West,270,0.0,0.0,98,0.00,,OVC240,0.00,VWS V14.01,2013-06-18 10:13:00,
2013-06-18 05:14:00,69.6,69.0,29.14,West,270,0.0,0.0,98,0.00,,OVC240,0.00,VWS V14.01,2013-06-18 10:14:00,
2013-06-18 05:15:00,69.6,69.0,29.14,West,270,0.0,0.0,98,0.00,,OVC240,0.00,VWS V14.01,2013-06-18 10:15:00,
2013-06-18 05:16:00,69.6,69.0,29.14,West,270,0.0,0.0,98,0.00,,OVC240,0.00,VWS V14.01,2013-06-18 10:16:00,
2013-06-18 05:17:00,69.6,69.0,29.14,West,270,1.1,1.1,98,0.00,,OVC240,0.00,VWS V14.01,2013-06-18 10:17:00,
2013-06-18 05:18:00,69.6,69.0,29.14,West,270,0.0,1.1,98,0.00,,OVC240,0.00,VWS V14.01,2013-06-18 10:18:00,
2013-06-18 05:19:00,69.6,69.0,29.14,West,270,0.0,1.1,98,0.00,,OVC240,0.00,VWS V14.01,2013-06-18 10:19:00,
2013-06-18 05:20:00,69.6,69.0,29.14,West,270,0.9,1.1,98,0.00,,OVC240,0.00,VWS V14.01,2013-06-18 10:20:00,
2013-06-18 05:21:00,69.6,69.0,29.14,West,270,0.0,1.1,98,0.00,,OVC240,0.00,VWS V14.01,2013-06-18 10:21:00,
2013-06-18 05:22:00,69.8,69.2,29.14,West,270,0.0,0.9,98,0.00,,OVC240,0.00,VWS V14.01,2013-06-18 10:22:00,
2013-06-18 05:23:00,69.8,69.2,29.14,East,90,0.0,0.9,98,0.00,,OVC240,0.00,VWS V14.01,2013-06-18 10:23:00,
2013-06-18 05:24:00,69.8,69.2,29.14,SW,225,0.0,0.9,98,0.00,,OVC240,0.00,VWS V14.01,2013-06-18 10:24:00,
2013-06-18 05:25:00,70.0,69.4,29.14,SW,225,0.0,0.0,98,0.00,,OVC240,0.00,VWS V14.01,2013-06-18 10:25:00,
2013-06-18 05:26:00,70.0,69.4,29.14,SW,225,0.0,0.0,98,0.00,,OVC240,0.00,VWS V14.01,2013-06-18 10:26:00,
2013-06-18 05:30:00,70.2,69.6,29.14,SE,135,1.1,1.3,98,0.00,,OVC240,0.00,VWS V14.01,2013-06-18 10:30:00,
2013-06-18 05:40:00,70.0,69.4,29.14,South,180,0.0,0.0,98,0.00,,OVC240,0.00,VWS V14.01,2013-06-18 10:40:00,
2013-06-18 05:50:00,70.0,69.4,29.14,SE,135,0.0,2.2,98,0.00,,OVC240,0.00,VWS V14.01,2013-06-18 10:50:00,
2013-06-18 06:00:00,70.0,69.4,29.12,ENE,68,0.0,0.0,98,0.00,,OVC240,0.00,VWS V14.01,2013-06-18 11:00:00,
2013-06-18 06:10:00,70.2,69.6,29.14,WSW,248,0.0,0.0,98,0.00,,OVC240,0.00,VWS V14.01,2013-06-18 11:10:00,
2013-06-18 06:20:00,70.5,69.9,29.14,SE,135,2.2,2.2,98,0.00,,OVC240,0.00,VWS V14.01,2013-06-18 11:20:00,
2013-06-18 06:30:00,71.4,70.8,29.14,West,270,1.6,2.7,98,0.00,,OVC240,0.00,VWS V14.01,2013-06-18 11:30:00,
2013-06-18 06:40:00,71.1,70.5,29.14,SE,135,0.0,0.0,98,0.00,,OVC240,0.00,VWS V14.01,2013-06-18 11:40:00,
2013-06-18 06:50:00,71.1,70.5,29.14,WNW,292,2.2,3.6,98,0.00,,OVC240,0.00,VWS V14.01,2013-06-18 11:50:00,
2013-06-18 07:00:00,71.1,70.5,29.14,ESE,112,2.9,2.9,98,0.00,,OVC240,0.00,VWS V14.01,2013-06-18 12:00:00,
2013-06-18 07:10:00,72.1,71.6,29.14,SE,135,1.6,2.9,98,0.00,,OVC240,0.00,VWS V14.01,2013-06-18 12:10:00,
2013-06-18 07:20:00,72.0,71.4,29.14,West,270,1.3,1.3,98,0.00,,OVC240,0.00,VWS V14.01,2013-06-18 12:20:00,
2013-06-18 07:30:00,72.5,71.9,29.14,WSW,248,2.9,2.9,98,0.00,,OVC240,0.00,VWS V14.01,2013-06-18 12:30:00,
2013-06-18 07:40:00,72.3,71.7,29.14,NW,315,0.9,0.9,98,0.00,,OVC240,0.00,VWS V14.01,2013-06-18 12:40:00,
2013-06-18 07:50:00,72.5,71.9,29.14,SE,135,4.5,4.5,98,0.00,,OVC240,0.00,VWS V14.01,2013-06-18 12:50:00,
2013-06-18 08:00:00,72.9,72.3,29.12,South,180,4.3,4.3,98,0.00,,OVC240,0.00,VWS V14.01,2013-06-18 13:00:00,
2013-06-18 08:10:00,72.9,72.3,29.14,SSE,158,3.4,4.7,98,0.00,,OVC240,0.00,VWS V14.01,2013-06-18 13:10:00,
2013-06-18 08:20:00,74.7,74.1,29.14,South,180,2.0,3.6,98,0.00,,OVC240,0.00,VWS V14.01,2013-06-18 13:20:00,
2013-06-18 08:30:00,74.8,73.9,29.14,WSW,248,2.5,2.5,97,0.00,,OVC240,0.00,VWS V14.01,2013-06-18 13:30:00,
2013-06-18 08:40:00,74.3,73.4,29.14,SE,135,3.6,3.6,97,0.00,,OVC240,0.00,VWS V14.01,2013-06-18 13:40:00,
2013-06-18 08:50:00,73.9,73.0,29.14,West,270,2.2,2.2,97,0.00,,OVC240,0.00,VWS V14.01,2013-06-18 13:50:00,
2013-06-18 09:00:00,73.9,73.0,29.14,SW,225,3.6,3.6,97,0.00,,OVC240,0.00,VWS V14.01,2013-06-18 14:00:00,
2013-06-18 09:10:00,73.4,72.5,29.12,SW,225,0.0,0.0,97,0.00,,OVC240,0.00,VWS V14.01,2013-06-18 14:10:00,
2013-06-18 09:20:00,73.2,72.3,29.12,ESE,112,2.7,3.1,97,0.00,,OVC240,0.00,VWS V14.01,2013-06-18 14:20:00,
2013-06-18 09:30:00,75.0,74.1,29.12,SW,225,2.2,2.2,97,0.00,,OVC240,0.00,VWS V14.01,2013-06-18 14:30:00,
2013-06-18 09:40:00,80.1,79.1,29.14,SE,135,2.5,3.1,97,0.00,,OVC240,0.00,VWS V14.01,2013-06-18 14:40:00,
2013-06-18 09:50:00,78.1,76.2,29.14,SE,135,1.1,1.1,94,0.00,,OVC240,0.00,VWS V14.01,2013-06-18 14:50:00,
2013-06-18 10:00:00,76.6,74.8,29.14,West,270,0.0,0.0,94,0.00,,OVC240,0.00,VWS V14.01,2013-06-18 15:00:00,
2013-06-18 10:10:00,77.0,75.1,29.14,SE,135,2.5,2.7,94,0.00,,OVC240,0.00,VWS V14.01,2013-06-18 15:10:00,
2013-06-18 10:20:00,80.8,78.9,29.14,East,90,2.0,2.0,94,0.00,,OVC240,0.00,VWS V14.01,2013-06-18 15:20:00,
2013-06-18 10:50:00,79.5,76.7,29.14,ENE,68,0.9,0.9,91,0.00,,OVC240,0.00,VWS V14.01,2013-06-18 15:50:00,
2013-06-18 11:00:00,83.7,80.1,29.14,SE,135,2.7,2.9,89,0.00,,OVC240,0.00,VWS V14.01,2013-06-18 16:00:00,
2013-06-18 11:10:00,85.6,80.2,29.14,SE,135,4.3,4.3,84,0.00,,OVC240,0.00,VWS V14.01,2013-06-18 16:10:00,
2013-06-18 11:20:00,84.4,78.3,29.14,SE,135,1.6,2.7,82,0.00,,OVC240,0.00,VWS V14.01,2013-06-18 16:20:00,
2013-06-18 11:30:00,84.6,77.3,29.14,NE,45,0.0,2.5,79,0.00,,OVC240,0.00,VWS V14.01,2013-06-18 16:30:00,
2013-06-18 11:40:00,85.1,76.3,29.14,SW,225,1.6,5.4,75,0.00,,OVC240,0.00,VWS V14.01,2013-06-18 16:40:00,
2013-06-18 11:50:00,87.4,75.6,29.14,NE,45,4.3,4.3,68,0.00,,OVC240,0.00,VWS V14.01,2013-06-18 16:50:00,
2013-06-18 12:00:00,89.1,77.6,29.14,NE,45,3.8,4.3,69,0.00,,OVC240,0.00,VWS V14.01,2013-06-18 17:00:00,
2013-06-18 12:10:00,87.8,75.0,29.14,NE,45,1.3,1.3,66,0.00,,OVC240,0.00,VWS V14.01,2013-06-18 17:10:00,
2013-06-18 12:20:00,91.0,75.7,29.14,North,0,2.5,4.3,61,0.00,,OVC240,0.00,VWS V14.01,2013-06-18 17:20:00,
2013-06-18 12:30:00,86.5,72.5,29.14,East,90,3.1,6.3,63,0.00,,OVC240,0.00,VWS V14.01,2013-06-18 17:30:00,
2013-06-18 12:40:00,85.5,72.4,29.17,North,0,2.5,2.9,65,0.00,,OVC240,0.00,VWS V14.01,2013-06-18 17:40:00,
2013-06-18 12:50:00,85.3,72.2,29.17,NNW,338,3.4,3.4,65,0.00,,OVC240,0.00,VWS V14.01,2013-06-18 17:50:00,
2013-06-18 13:00:00,84.2,70.7,29.14,North,0,3.1,5.8,64,0.00,,OVC240,0.00,VWS V14.01,2013-06-18 18:00:00,
2013-06-18 13:10:00,84.0,71.4,29.14,NNW,338,1.6,2.7,66,0.00,,OVC240,0.00,VWS V14.01,2013-06-18 18:10:00,
2013-06-18 13:20:00,84.0,72.3,29.14,SW,225,1.1,1.1,68,0.00,,OVC240,0.00,VWS V14.01,2013-06-18 18:20:00,
2013-06-18 13:30:00,81.7,69.2,29.14,North,0,5.6,7.4,66,0.00,,OVC240,0.00,VWS V14.01,2013-06-18 18:30:00,
2013-06-18 13:40:00,82.2,71.0,29.14,North,0,2.9,2.9,69,0.00,,OVC240,0.00,VWS V14.01,2013-06-18 18:40:00,
2013-06-18 13:50:00,84.4,72.2,29.14,SW,225,1.3,1.3,67,0.00,,OVC240,0.00,VWS V14.01,2013-06-18 18:50:00,
2013-06-18 14:10:00,84.7,72.6,29.14,NE,45,3.4,3.4,67,0.00,,OVC240,0.00,VWS V14.01,2013-06-18 19:10:00,
2013-06-18 14:20:00,81.7,68.3,29.14,West,270,4.0,4.0,64,0.00,,OVC240,0.00,VWS V14.01,2013-06-18 19:20:00,
2013-06-18 14:30:00,80.4,68.5,29.14,North,0,2.9,2.9,67,0.00,,OVC240,0.00,VWS V14.01,2013-06-18 19:30:00,
2013-06-18 14:40:00,80.1,68.6,29.14,SSW,202,3.4,3.8,68,0.00,,OVC240,0.00,VWS V14.01,2013-06-18 19:40:00,
2013-06-18 14:50:00,79.5,68.0,29.14,NW,315,2.9,2.9,68,0.00,,OVC240,0.00,VWS V14.01,2013-06-18 19:50:00,
2013-06-18 15:00:00,80.6,69.9,29.14,SW,225,0.0,0.9,70,0.00,,OVC240,0.00,VWS V14.01,2013-06-18 20:00:00,
2013-06-18 15:10:00,80.2,68.7,29.12,NNW,338,2.7,2.9,68,0.00,,OVC240,0.00,VWS V14.01,2013-06-18 20:10:00,
2013-06-18 15:20:00,80.1,69.8,29.12,NE,45,1.1,2.7,71,0.00,,OVC240,0.00,VWS V14.01,2013-06-18 20:20:00,
2013-06-18 15:28:00,81.5,70.8,29.14,ENE,68,2.0,2.0,70,0.00,,OVC240,0.00,VWS V14.01,2013-06-18 20:28:00,
2013-06-18 15:29:00,81.7,70.9,29.12,ESE,112,2.5,2.5,70,0.00,,OVC240,0.00,VWS V14.01,2013-06-18 20:29:00,
2013-06-18 15:30:00,81.7,70.9,29.12,ESE,112,1.3,2.5,70,0.00,,OVC240,0.00,VWS V14.01,2013-06-18 20:30:00,
2013-06-18 15:31:00,81.7,70.9,29.12,ESE,112,1.3,2.5,70,0.00,,OVC240,0.00,VWS V14.01,2013-06-18 20:31:00,
2013-06-18 15:32:00,82.6,71.4,29.12,SE,135,1.3,2.5,69,0.00,,OVC240,0.00,VWS V14.01,2013-06-18 20:32:00,
2013-06-18 15:40:00,82.4,70.3,29.12,SE,135,3.1,3.1,67,0.00,,OVC240,0.00,VWS V14.01,2013-06-18 20:40:00,
2013-06-18 15:50:00,83.1,71.0,29.12,NE,45,2.5,2.5,67,0.00,,OVC240,0.00,VWS V14.01,2013-06-18 20:50:00,
2013-06-18 16:00:00,83.5,72.2,29.12,West,270,1.3,1.3,69,0.00,,OVC240,0.00,VWS V14.01,2013-06-18 21:00:00,
2013-06-18 16:10:00,82.4,71.6,29.12,West,270,0.0,0.0,70,0.00,,OVC240,0.00,VWS V14.01,2013-06-18 21:10:00,
2013-06-18 16:20:00,79.9,70.1,29.12,West,270,0.0,0.0,72,0.00,,OVC240,0.00,VWS V14.01,2013-06-18 21:20:00,
2013-06-18 16:30:00,76.3,68.2,29.14,West,270,0.0,0.0,76,0.00,,OVC240,0.00,VWS V14.01,2013-06-18 21:30:00,
2013-06-18 16:40:00,74.3,67.7,29.14,West,270,0.0,0.0,80,0.00,,OVC240,0.00,VWS V14.01,2013-06-18 21:40:00,
2013-06-18 16:50:00,73.0,67.2,29.14,West,270,0.0,0.0,82,0.00,,OVC240,0.00,VWS V14.01,2013-06-18 21:50:00,
2013-06-18 17:00:00,72.3,67.6,29.14,West,270,0.0,0.0,85,0.00,,OVC240,0.00,VWS V14.01,2013-06-18 22:00:00,
2013-06-18 17:10:00,71.8,67.7,29.14,NW,315,0.0,0.0,87,0.00,,OVC240,0.00,VWS V14.01,2013-06-18 22:10:00,
2013-06-18 17:20:00,71.4,67.7,29.14,NW,315,0.0,0.0,88,0.00,,OVC240,0.00,VWS V14.01,2013-06-18 22:20:00,
2013-06-18 17:30:00,70.9,67.5,29.17,NW,315,0.0,0.0,89,0.00,,OVC240,0.00,VWS V14.01,2013-06-18 22:30:00,
2013-06-18 17:40:00,70.2,66.8,29.14,NW,315,0.0,0.0,89,0.00,,OVC240,0.00,VWS V14.01,2013-06-18 22:40:00,
2013-06-18 17:50:00,69.4,66.4,29.14,NW,315,0.0,0.0,90,0.00,,OVC240,0.00,VWS V14.01,2013-06-18 22:50:00,
2013-06-18 18:00:00,69.3,66.2,29.14,NW,315,0.0,0.0,90,0.00,,OVC240,0.00,VWS V14.01,2013-06-18 23:00:00,
2013-06-18 18:10:00,68.2,65.5,29.14,NW,315,0.0,0.0,91,0.00,,OVC240,0.00,VWS V14.01,2013-06-18 23:10:00,
2013-06-18 18:20:00,67.8,65.1,29.14,NW,315,0.0,0.0,91,0.00,,OVC240,0.00,VWS V14.01,2013-06-18 23:20:00,
2013-06-18 18:30:00,67.6,64.9,29.17,NW,315,0.0,0.0,91,0.00,,OVC240,0.00,VWS V14.01,2013-06-18 23:30:00,
2013-06-18 18:40:00,67.3,64.9,29.17,NW,315,0.0,0.0,92,0.00,,OVC240,0.00,VWS V14.01,2013-06-18 23:40:00,
2013-06-18 18:50:00,67.3,64.9,29.17,NW,315,0.0,0.0,92,0.00,,OVC240,0.00,VWS V14.01,2013-06-18 23:50:00,
2013-06-18 19:00:00,67.1,65.0,29.17,NW,315,0.0,0.0,93,0.00,,OVC240,0.00,VWS V14.01,2013-06-19 00:00:00,
2013-06-18 19:10:00,66.9,64.8,29.20,NW,315,0.0,0.0,93,0.00,,OVC240,0.00,VWS V14.01,2013-06-19 00:10:00,
2013-06-18 19:20:00,66.6,64.8,29.20,NW,315,0.0,0.0,94,0.00,,OVC240,0.00,VWS V14.01,2013-06-19 00:20:00,
2013-06-18 19:30:00,66.6,64.8,29.20,NW,315,0.0,0.0,94,0.00,,OVC240,0.00,VWS V14.01,2013-06-19 00:30:00,
2013-06-18 19:40:00,66.4,64.6,29.20,NW,315,0.0,0.0,94,0.00,,OVC240,0.00,VWS V14.01,2013-06-19 00:40:00,
2013-06-18 19:50:00,66.4,64.9,29.20,NW,315,0.0,0.0,95,0.00,,OVC240,0.00,VWS V14.01,2013-06-19 00:50:00,
2013-06-18 20:00:00,66.2,64.7,29.20,NW,315,0.0,0.0,95,0.00,,OVC240,0.00,VWS V14.01,2013-06-19 01:00:00,
2013-06-18 20:10:00,66.0,64.6,29.20,NW,315,0.0,0.0,95,0.00,,OVC240,0.00,VWS V14.01,2013-06-19 01:10:00,
2013-06-18 20:20:00,65.8,64.7,29.20,NW,315,0.0,0.0,96,0.00,,OVC240,0.00,VWS V14.01,2013-06-19 01:20:00,
2013-06-18 20:30:00,65.8,64.7,29.20,NW,315,0.0,0.0,96,0.00,,OVC240,0.00,VWS V14.01,2013-06-19 01:30:00,
2013-06-18 20:37:00,65.7,64.5,29.20,NW,315,0.0,0.0,96,0.00,,OVC240,0.00,VWS V14.01,2013-06-19 01:37:00,
2013-06-18 20:38:00,65.7,64.5,29.20,NW,315,0.0,0.0,96,0.00,,OVC240,0.00,VWS V14.01,2013-06-19 01:38:00,
2013-06-18 20:39:00,65.7,64.5,29.20,NW,315,0.0,0.0,96,0.00,,OVC240,0.00,VWS V14.01,2013-06-19 01:39:00,
2013-06-18 20:40:00,65.5,64.3,29.20,NW,315,0.0,0.0,96,0.00,,OVC240,0.00,VWS V14.01,2013-06-19 01:40:00,
2013-06-18 20:41:00,65.5,64.3,29.20,NW,315,0.0,0.0,96,0.00,,OVC240,0.00,VWS V14.01,2013-06-19 01:41:00,
2013-06-18 20:42:00,65.5,64.3,29.20,NW,315,0.0,0.0,96,0.00,,OVC240,0.00,VWS V14.01,2013-06-19 01:42:00,
2013-06-18 20:43:00,65.5,64.3,29.20,NW,315,0.0,0.0,96,0.00,,OVC240,0.00,VWS V14.01,2013-06-19 01:43:00,
2013-06-18 20:44:00,65.5,64.3,29.20,NW,315,0.0,0.0,96,0.00,,OVC240,0.00,VWS V14.01,2013-06-19 01:44:00,
2013-06-18 20:45:00,65.5,64.3,29.20,NW,315,0.0,0.0,96,0.00,,OVC240,0.00,VWS V14.01,2013-06-19 01:45:00,
2013-06-18 20:46:00,65.5,64.3,29.20,NW,315,0.0,0.0,96,0.00,,OVC240,0.00,VWS V14.01,2013-06-19 01:46:00,
2013-06-18 20:47:00,65.5,64.3,29.20,NW,315,0.0,0.0,96,0.00,,OVC240,0.00,VWS V14.01,2013-06-19 01:47:00,
2013-06-18 20:48:00,65.5,64.3,29.20,NW,315,0.0,0.0,96,0.00,,OVC240,0.00,VWS V14.01,2013-06-19 01:48:00,
2013-06-18 20:49:00,65.5,64.3,29.20,NW,315,0.0,0.0,96,0.00,,OVC240,0.00,VWS V14.01,2013-06-19 01:49:00,
2013-06-18 20:50:00,65.5,64.3,29.20,NW,315,0.0,0.0,96,0.00,,OVC240,0.00,VWS V14.01,2013-06-19 01:50:00,
2013-06-18 20:51:00,65.5,64.3,29.20,NW,315,0.0,0.0,96,0.00,,OVC240,0.00,VWS V14.01,2013-06-19 01:51:00,
2013-06-18 20:52:00,65.3,64.1,29.20,NW,315,0.0,0.0,96,0.00,,OVC240,0.00,VWS V14.01,2013-06-19 01:52:00,
2013-06-18 20:53:00,65.3,64.1,29.20,NW,315,0.0,0.0,96,0.00,,OVC240,0.00,VWS V14.01,2013-06-19 01:53:00,
2013-06-18 20:54:00,65.3,64.1,29.20,NW,315,0.0,0.0,96,0.00,,OVC240,0.00,VWS V14.01,2013-06-19 01:54:00,
2013-06-18 20:55:00,65.3,64.1,29.20,NW,315,0.0,0.0,96,0.00,,OVC240,0.00,VWS V14.01,2013-06-19 01:55:00,
2013-06-18 20:56:00,65.3,64.1,29.20,NW,315,0.0,0.0,96,0.00,,OVC240,0.00,VWS V14.01,2013-06-19 01:56:00,
2013-06-18 20:57:00,65.3,64.1,29.20,NW,315,0.0,0.0,96,0.00,,OVC240,0.00,VWS V14.01,2013-06-19 01:57:00,
2013-06-18 21:00:00,65.3,64.1,29.20,NW,315,0.0,0.0,96,0.00,,OVC240,0.00,VWS V14.01,2013-06-19 02:00:00,
2013-06-18 23:03:00,64.4,63.5,29.20,North,0,0.0,0.0,97,0.00,,OVC240,0.00,VWS V14.01,2013-06-19 04:03:00,
2013-06-18 23:04:00,64.4,63.5,29.20,North,0,0.0,0.0,97,0.00,,OVC240,0.00,VWS V14.01,2013-06-19 04:04:00,
2013-06-18 23:05:00,64.4,63.5,29.20,North,0,0.0,0.0,97,0.00,,OVC240,0.00,VWS V14.01,2013-06-19 04:05:00,
2013-06-18 23:06:00,64.4,63.5,29.20,North,0,0.0,0.0,97,0.00,,OVC240,0.00,VWS V14.01,2013-06-19 04:06:00,
2013-06-18 23:08:00,64.4,63.5,29.20,North,0,0.0,0.0,97,0.00,,OVC240,0.00,VWS V14.01,2013-06-19 04:08:00,
2013-06-18 23:09:00,64.4,63.5,29.20,North,0,0.0,0.0,97,0.00,,OVC240,0.00,VWS V14.01,2013-06-19 04:09:00,
2013-06-18 23:10:00,64.4,63.5,29.20,North,0,0.0,0.0,97,0.00,,OVC240,0.00,VWS V14.01,2013-06-19 04:10:00,
2013-06-18 23:11:00,64.4,63.5,29.20,North,0,0.0,0.0,97,0.00,,OVC240,0.00,VWS V14.01,2013-06-19 04:11:00,
2013-06-18 23:12:00,64.4,63.5,29.20,North,0,0.0,0.0,97,0.00,,OVC240,0.00,VWS V14.01,2013-06-19 04:12:00,
2013-06-18 23:13:00,64.4,63.5,29.20,North,0,0.0,0.0,97,0.00,,OVC240,0.00,VWS V14.01,2013-06-19 04:13:00,
2013-06-18 23:14:00,64.4,63.5,29.20,North,0,0.0,0.0,97,0.00,,OVC240,0.00,VWS V14.01,2013-06-19 04:14:00,
2013-06-18 23:15:00,64.4,63.5,29.20,North,0,0.0,0.0,97,0.00,,OVC240,0.00,VWS V14.01,2013-06-19 04:15:00,
2013-06-18 23:16:00,64.4,63.5,29.20,North,0,0.0,0.0,97,0.00,,OVC240,0.00,VWS V14.01,2013-06-19 04:16:00,
2013-06-18 23:18:00,64.2,63.7,29.20,North,0,0.0,0.0,98,0.00,,OVC240,0.00,VWS V14.01,2013-06-19 04:18:00,
2013-06-18 23:19:00,64.2,63.7,29.20,North,0,0.0,0.0,98,0.00,,OVC240,0.00,VWS V14.01,2013-06-19 04:19:00,
2013-06-18 23:20:00,64.2,63.7,29.20,North,0,0.0,0.0,98,0.00,,OVC240,0.00,VWS V14.01,2013-06-19 04:20:00,
2013-06-18 23:21:00,64.2,63.7,29.20,North,0,0.0,0.0,98,0.00,,OVC240,0.00,VWS V14.01,2013-06-19 04:21:00,
2013-06-18 23:22:00,64.2,63.7,29.20,North,0,0.0,0.0,98,0.00,,OVC240,0.00,VWS V14.01,2013-06-19 04:22:00,
2013-06-18 23:23:00,64.2,63.7,29.20,North,0,0.0,0.0,98,0.00,,OVC240,0.00,VWS V14.01,2013-06-19 04:23:00,
2013-06-18 23:24:00,64.0,63.5,29.20,North,0,0.0,0.0,98,0.00,,OVC240,0.00,VWS V14.01,2013-06-19 04:24:00,
2013-06-18 23:25:00,64.2,63.7,29.20,North,0,0.0,0.0,98,0.00,,OVC240,0.00,VWS V14.01,2013-06-19 04:25:00,
2013-06-18 23:26:00,64.0,63.5,29.20,North,0,0.0,0.0,98,0.00,,OVC240,0.00,VWS V14.01,2013-06-19 04:26:00,